LOT302 LIRF-EPWA

Flight info

Callsign LOT302
Flight time 1h 49m
Altitude 37000
Route XIBR5A OKU5R OKUNO L5 ATRUP DCT XAMIT DCT KOPRY DCT SUPAK DCT ORTEB DCT KONZI DCT LOGDA LOGD6U
Aircraft B38M/M-SDE1FGHILORVWXY/HB1

Departure

Time 2026-05-05 11:01
Airport Rome–Fiumicino Leonardo da Vinci International Airport (LIRF)

Arrival

Time 2026-05-05 12:50
Airport Warsaw Chopin Airport (EPWA)
Time Latitude Longitude Altitude Speed Heading
2026-05-05 10:44 41.79600 12.26190 21 ft 0 kts 115°
2026-05-05 10:55 41.79604 12.26179 24 ft 2 kts 117°
2026-05-05 10:55 41.79611 12.26160 25 ft 2 kts 119°
2026-05-05 10:55 41.79619 12.26141 23 ft 2 kts 119°
2026-05-05 10:56 41.79626 12.26122 21 ft 2 kts 90°
2026-05-05 10:56 41.79620 12.26103 24 ft 2 kts 34°
2026-05-05 10:56 41.79606 12.26092 26 ft 2 kts 25°
2026-05-05 10:57 41.79614 12.26097 24 ft 4 kts 23°
2026-05-05 10:57 41.79666 12.26129 21 ft 11 kts 25°
2026-05-05 10:57 41.79750 12.26138 21 ft 13 kts 348°
2026-05-05 10:58 41.79839 12.26176 22 ft 14 kts 26°
2026-05-05 10:58 41.79934 12.26235 23 ft 16 kts 24°
2026-05-05 10:58 41.80044 12.26302 20 ft 19 kts 24°
2026-05-05 10:58 41.80166 12.26377 20 ft 21 kts 26°
2026-05-05 10:59 41.80312 12.26387 17 ft 23 kts 342°
2026-05-05 10:59 41.80439 12.26439 16 ft 22 kts 70°
2026-05-05 10:59 41.80492 12.26635 16 ft 23 kts 70°
2026-05-05 10:59 41.80549 12.26844 18 ft 24 kts 69°
2026-05-05 11:00 41.80630 12.27040 15 ft 25 kts 23°
2026-05-05 11:00 41.80801 12.27044 11 ft 26 kts 341°
2026-05-05 11:00 41.80942 12.26970 12 ft 17 kts 321°
2026-05-05 11:00 41.80919 12.26793 13 ft 47 kts 251°
2026-05-05 11:01 41.80704 12.26012 18 ft 129 kts 250°
2026-05-05 11:01 41.80266 12.24674 300 ft 169 kts 249°
2026-05-05 11:01 41.79893 12.23125 1060 ft 181 kts 246°
2026-05-05 11:01 41.79424 12.21614 1948 ft 174 kts 228°
2026-05-05 11:02 41.78560 12.20435 2522 ft 185 kts 219°
2026-05-05 11:02 41.77570 12.19244 3286 ft 189 kts 220°
2026-05-05 11:02 41.76586 12.18086 4189 ft 190 kts 220°
2026-05-05 11:02 41.75418 12.17116 4754 ft 212 kts 198°
2026-05-05 11:03 41.73862 12.16956 5202 ft 238 kts 182°
2026-05-05 11:03 41.72139 12.16994 5754 ft 258 kts 183°
2026-05-05 11:03 41.70282 12.17048 6435 ft 270 kts 183°
2026-05-05 11:03 41.68409 12.17117 7386 ft 272 kts 182°
2026-05-05 11:04 41.66495 12.17198 8264 ft 277 kts 182°
2026-05-05 11:04 41.64559 12.17284 9306 ft 279 kts 183°
2026-05-05 11:04 41.62607 12.17373 10201 ft 284 kts 182°
2026-05-05 11:04 41.60571 12.17467 10650 ft 302 kts 182°
2026-05-05 11:05 41.58406 12.17568 10981 ft 322 kts 182°
2026-05-05 11:05 41.56150 12.17943 11369 ft 343 kts 166°
2026-05-05 11:05 41.54008 12.19468 12269 ft 350 kts 148°
2026-05-05 11:05 41.52033 12.21354 13032 ft 356 kts 148°
2026-05-05 11:06 41.50051 12.23369 13772 ft 364 kts 139°
2026-05-05 11:06 41.48528 12.26117 14469 ft 374 kts 118°
2026-05-05 11:06 41.47809 12.29467 15113 ft 383 kts 97°
2026-05-05 11:06 41.48002 12.33035 15718 ft 390 kts 75°
2026-05-05 11:07 41.49128 12.36355 16326 ft 391 kts 54°
2026-05-05 11:07 41.50771 12.39212 16844 ft 395 kts 47°
2026-05-05 11:07 41.52875 12.41544 17404 ft 392 kts 26°
2026-05-05 11:07 41.55316 12.43141 17915 ft 395 kts 22°
2026-05-05 11:08 41.57820 12.44729 18401 ft 399 kts 22°
2026-05-05 11:08 41.60333 12.46302 18889 ft 401 kts 21°
2026-05-05 11:08 41.62879 12.47883 19349 ft 404 kts 21°
2026-05-05 11:08 41.64578 12.48937 19711 ft 405 kts 21°
2026-05-05 11:09 41.67130 12.50518 20231 ft 408 kts 21°
2026-05-05 11:09 41.69724 12.52126 20709 ft 412 kts 21°
2026-05-05 11:09 41.72337 12.53747 21262 ft 414 kts 21°
2026-05-05 11:09 41.75822 12.55911 21880 ft 418 kts 21°
2026-05-05 11:10 41.78462 12.57552 22354 ft 421 kts 21°
2026-05-05 11:10 41.80248 12.58695 22667 ft 424 kts 25°
2026-05-05 11:10 41.82727 12.60917 23170 ft 429 kts 32°
2026-05-05 11:10 41.85178 12.63222 23594 ft 433 kts 31°
2026-05-05 11:11 41.87651 12.65543 24015 ft 436 kts 31°
2026-05-05 11:11 41.90114 12.67859 24440 ft 439 kts 31°
2026-05-05 11:11 41.92651 12.70248 24844 ft 442 kts 31°
2026-05-05 11:11 41.95172 12.72624 25241 ft 445 kts 31°
2026-05-05 11:12 41.97722 12.75028 25626 ft 448 kts 31°
2026-05-05 11:12 42.00256 12.77420 25989 ft 451 kts 31°
2026-05-05 11:12 42.02785 12.80036 26386 ft 459 kts 41°
2026-05-05 11:12 42.04752 12.83384 26859 ft 465 kts 57°
2026-05-05 11:13 42.06425 12.87196 27168 ft 471 kts 57°
2026-05-05 11:13 42.08060 12.90979 27480 ft 474 kts 58°
2026-05-05 11:13 42.09698 12.94827 27882 ft 476 kts 58°
2026-05-05 11:13 42.11290 12.98773 28174 ft 481 kts 60°
2026-05-05 11:14 42.12856 13.02775 28483 ft 483 kts 60°
2026-05-05 11:14 42.14429 13.06775 28830 ft 485 kts 60°
2026-05-05 11:14 42.16012 13.10801 29142 ft 489 kts 60°
2026-05-05 11:14 42.17601 13.14877 29456 ft 492 kts 60°
2026-05-05 11:15 42.19186 13.18945 29779 ft 495 kts 60°
2026-05-05 11:15 42.20794 13.23077 30069 ft 498 kts 60°
2026-05-05 11:15 42.22410 13.27236 30399 ft 500 kts 60°
2026-05-05 11:15 42.24021 13.31389 30682 ft 502 kts 60°
2026-05-05 11:16 42.25647 13.35587 30957 ft 504 kts 60°
2026-05-05 11:16 42.27273 13.39788 31305 ft 505 kts 60°
2026-05-05 11:16 42.28897 13.43992 31565 ft 507 kts 60°
2026-05-05 11:16 42.30532 13.48230 31855 ft 508 kts 60°
2026-05-05 11:17 42.32172 13.52487 32095 ft 511 kts 60°
2026-05-05 11:17 42.33831 13.56739 32321 ft 513 kts 56°
2026-05-05 11:17 42.35965 13.60545 32714 ft 502 kts 40°
2026-05-05 11:17 42.38480 13.63778 33072 ft 500 kts 38°
2026-05-05 11:18 42.41034 13.67001 33360 ft 501 kts 38°
2026-05-05 11:18 42.43566 13.70154 33751 ft 499 kts 37°
2026-05-05 11:18 42.46128 13.73314 34122 ft 499 kts 37°
2026-05-05 11:18 42.48691 13.76467 34400 ft 499 kts 37°
2026-05-05 11:19 42.51250 13.79614 34743 ft 497 kts 37°
2026-05-05 11:19 42.53808 13.82763 35135 ft 494 kts 37°
2026-05-05 11:19 42.56351 13.85899 35487 ft 492 kts 37°
2026-05-05 11:19 42.58868 13.89006 35876 ft 489 kts 37°
2026-05-05 11:20 42.61377 13.92106 36288 ft 485 kts 37°
2026-05-05 11:20 42.63857 13.95173 36631 ft 482 kts 37°
2026-05-05 11:20 42.66328 13.98232 36915 ft 481 kts 37°
2026-05-05 11:21 42.71253 14.04341 36946 ft 478 kts 37°
2026-05-05 11:21 42.76170 14.10453 36984 ft 478 kts 38°
2026-05-05 11:22 42.81076 14.16566 36951 ft 478 kts 38°
2026-05-05 11:22 42.85967 14.22674 36948 ft 478 kts 38°
2026-05-05 11:23 42.90845 14.28779 36958 ft 478 kts 38°
2026-05-05 11:23 42.95741 14.34922 36959 ft 478 kts 38°
2026-05-05 11:24 43.00661 14.41106 36955 ft 478 kts 38°
2026-05-05 11:24 43.05514 14.47221 36953 ft 478 kts 38°
2026-05-05 11:25 43.10396 14.53387 36973 ft 478 kts 38°
2026-05-05 11:25 43.15280 14.59569 36954 ft 476 kts 39°
2026-05-05 11:26 43.20143 14.65739 36962 ft 477 kts 39°
2026-05-05 11:26 43.25006 14.71921 36956 ft 477 kts 39°
2026-05-05 11:27 43.29869 14.78102 36965 ft 475 kts 37°
2026-05-05 11:27 43.32526 14.80612 36936 ft 464 kts 22°
2026-05-05 11:27 43.35430 14.82649 36972 ft 466 kts 23°
2026-05-05 11:28 43.41147 14.86745 36961 ft 466 kts 22°
2026-05-05 11:28 43.46928 14.90815 36969 ft 466 kts 23°
2026-05-05 11:29 43.52720 14.94887 36962 ft 466 kts 23°
2026-05-05 11:29 43.58500 14.98959 36962 ft 466 kts 23°
2026-05-05 11:30 43.64279 15.03041 36979 ft 467 kts 23°
2026-05-05 11:30 43.70060 15.07131 36966 ft 467 kts 23°
2026-05-05 11:31 43.75815 15.11212 36976 ft 467 kts 23°
2026-05-05 11:31 43.81594 15.15320 36972 ft 467 kts 23°
2026-05-05 11:32 43.87358 15.19426 36984 ft 467 kts 24°
2026-05-05 11:32 43.93134 15.23549 36993 ft 467 kts 24°
2026-05-05 11:33 43.98907 15.27681 37011 ft 467 kts 24°
2026-05-05 11:33 44.04693 15.31828 36998 ft 467 kts 24°
2026-05-05 11:34 44.10414 15.35939 37003 ft 467 kts 24°
2026-05-05 11:34 44.16185 15.40096 37017 ft 467 kts 24°
2026-05-05 11:35 44.21964 15.44267 37008 ft 468 kts 24°
2026-05-05 11:35 44.27742 15.48447 36989 ft 468 kts 24°
2026-05-05 11:36 44.33509 15.52627 36997 ft 468 kts 25°
2026-05-05 11:36 44.39292 15.56830 36997 ft 467 kts 25°
2026-05-05 11:37 44.45063 15.61032 36991 ft 468 kts 25°
2026-05-05 11:37 44.50833 15.65244 37000 ft 468 kts 25°
2026-05-05 11:38 44.56559 15.69433 36988 ft 467 kts 25°
2026-05-05 11:38 44.62358 15.73685 36974 ft 467 kts 25°
2026-05-05 11:39 44.68080 15.77890 36977 ft 467 kts 25°
2026-05-05 11:39 44.73833 15.82126 36975 ft 468 kts 25°
2026-05-05 11:40 44.79597 15.86382 36958 ft 468 kts 25°
2026-05-05 11:40 44.85381 15.90661 36968 ft 468 kts 25°
2026-05-05 11:41 44.91140 15.94932 36946 ft 466 kts 25°
2026-05-05 11:41 44.96883 15.99200 36948 ft 467 kts 25°
2026-05-05 11:42 45.02627 16.03479 36946 ft 467 kts 25°
2026-05-05 11:42 45.08373 16.07769 36939 ft 467 kts 25°
2026-05-05 11:43 45.14137 16.12083 36936 ft 468 kts 25°
2026-05-05 11:43 45.19850 16.16368 36938 ft 468 kts 25°
2026-05-05 11:44 45.25599 16.20690 36933 ft 468 kts 25°
2026-05-05 11:44 45.31358 16.25029 36934 ft 467 kts 25°
2026-05-05 11:45 45.37103 16.29368 36929 ft 468 kts 25°
2026-05-05 11:45 45.42805 16.33685 36937 ft 466 kts 25°
2026-05-05 11:46 45.48524 16.38024 36933 ft 465 kts 25°
2026-05-05 11:46 45.54242 16.42373 36919 ft 466 kts 25°
2026-05-05 11:47 45.59971 16.46741 36924 ft 466 kts 25°
2026-05-05 11:47 45.65676 16.51100 36915 ft 466 kts 25°
2026-05-05 11:48 45.74254 16.57673 36915 ft 466 kts 26°
2026-05-05 11:48 45.79942 16.62045 36915 ft 466 kts 26°
2026-05-05 11:49 45.85643 16.66437 36912 ft 466 kts 26°
2026-05-05 11:49 45.91355 16.70847 36914 ft 466 kts 26°
2026-05-05 11:50 45.97065 16.75267 36919 ft 466 kts 26°
2026-05-05 11:50 46.02773 16.79693 36911 ft 466 kts 26°
2026-05-05 11:51 46.08478 16.84126 36905 ft 466 kts 26°
2026-05-05 11:51 46.14179 16.88568 36914 ft 466 kts 26°
2026-05-05 11:52 46.18905 16.92258 36905 ft 465 kts 26°
2026-05-05 11:52 46.24565 16.96800 36901 ft 466 kts 29°
2026-05-05 11:53 46.30101 17.01653 36903 ft 466 kts 28°
2026-05-05 11:53 46.35683 17.06497 36899 ft 465 kts 28°
2026-05-05 11:54 46.41186 17.11278 36898 ft 464 kts 28°
2026-05-05 11:54 46.46709 17.16088 36889 ft 463 kts 28°
2026-05-05 11:55 46.52228 17.20905 36894 ft 463 kts 29°
2026-05-05 11:55 46.57758 17.25745 36894 ft 463 kts 29°
2026-05-05 11:56 46.63240 17.30553 36889 ft 463 kts 29°
2026-05-05 11:56 46.68770 17.35414 36889 ft 463 kts 29°
2026-05-05 11:57 46.74283 17.40274 36883 ft 463 kts 29°
2026-05-05 11:57 46.79757 17.45111 36883 ft 463 kts 29°
2026-05-05 11:58 46.85279 17.50001 36883 ft 463 kts 29°
2026-05-05 11:58 46.90777 17.54883 36865 ft 464 kts 29°
2026-05-05 11:59 46.96303 17.59802 36852 ft 465 kts 28°
2026-05-05 11:59 47.01827 17.64730 36882 ft 465 kts 29°
2026-05-05 12:00 47.07351 17.69671 36895 ft 465 kts 29°
2026-05-05 12:00 47.12870 17.74620 36871 ft 466 kts 29°
2026-05-05 12:01 47.18402 17.79591 36875 ft 466 kts 29°
2026-05-05 12:01 47.23930 17.84572 36895 ft 465 kts 29°
2026-05-05 12:02 47.29427 17.89537 36882 ft 465 kts 30°
2026-05-05 12:02 47.34931 17.94521 36879 ft 466 kts 30°
2026-05-05 12:03 47.40452 17.99531 36857 ft 465 kts 30°
2026-05-05 12:03 47.45954 18.04538 36862 ft 466 kts 30°
2026-05-05 12:04 47.51464 18.09564 36861 ft 466 kts 30°
2026-05-05 12:04 47.56977 18.14606 36851 ft 466 kts 29°
2026-05-05 12:05 47.62460 18.19632 36861 ft 466 kts 30°
2026-05-05 12:05 47.67962 18.24690 36846 ft 465 kts 30°
2026-05-05 12:06 47.73462 18.29758 36857 ft 465 kts 30°
2026-05-05 12:06 47.78960 18.34838 36854 ft 465 kts 30°
2026-05-05 12:07 47.84452 18.39924 36866 ft 465 kts 30°
2026-05-05 12:07 47.89949 18.45028 36864 ft 465 kts 30°
2026-05-05 12:08 47.95420 18.50120 36863 ft 465 kts 30°
2026-05-05 12:08 48.00897 18.55231 36867 ft 465 kts 30°
2026-05-05 12:09 48.06395 18.60375 36890 ft 467 kts 30°
2026-05-05 12:09 48.11909 18.65547 36940 ft 466 kts 30°
2026-05-05 12:10 48.17393 18.70703 36944 ft 465 kts 30°
2026-05-05 12:10 48.22865 18.75863 36934 ft 466 kts 30°
2026-05-05 12:11 48.28353 18.81048 36930 ft 466 kts 30°
2026-05-05 12:11 48.33836 18.86245 36925 ft 466 kts 30°
2026-05-05 12:12 48.39294 18.91429 36925 ft 466 kts 30°
2026-05-05 12:12 48.44763 18.96637 36937 ft 467 kts 30°
2026-05-05 12:13 48.50245 19.01873 36915 ft 466 kts 30°
2026-05-05 12:13 48.55739 19.07134 36937 ft 467 kts 30°
2026-05-05 12:14 48.61207 19.12382 36942 ft 466 kts 30°
2026-05-05 12:14 48.66663 19.17634 36943 ft 466 kts 30°
2026-05-05 12:15 48.72104 19.22885 36940 ft 465 kts 30°
2026-05-05 12:15 48.77565 19.28168 36945 ft 465 kts 30°
2026-05-05 12:16 48.83030 19.33468 36948 ft 467 kts 30°
2026-05-05 12:16 48.88509 19.38797 36956 ft 467 kts 30°
2026-05-05 12:17 48.93969 19.44122 36960 ft 467 kts 30°
2026-05-05 12:17 48.99421 19.49451 36960 ft 468 kts 30°
2026-05-05 12:18 49.04879 19.54800 36957 ft 467 kts 31°
2026-05-05 12:18 49.10341 19.60165 36941 ft 467 kts 31°
2026-05-05 12:19 49.15799 19.65540 36955 ft 468 kts 31°
2026-05-05 12:19 49.21259 19.70931 36949 ft 467 kts 31°
2026-05-05 12:20 49.26691 19.76310 36936 ft 466 kts 30°
2026-05-05 12:20 49.32169 19.81622 36932 ft 466 kts 29°
2026-05-05 12:21 49.37694 19.86849 36929 ft 467 kts 29°
2026-05-05 12:21 49.43220 19.92105 36916 ft 466 kts 29°
2026-05-05 12:22 49.48731 19.97360 36921 ft 466 kts 29°
2026-05-05 12:22 49.54244 20.02632 36927 ft 466 kts 29°
2026-05-05 12:23 49.59710 20.07873 36924 ft 465 kts 29°
2026-05-05 12:23 49.65179 20.13130 36933 ft 464 kts 30°
2026-05-05 12:24 49.70654 20.18409 36922 ft 465 kts 30°
2026-05-05 12:24 49.76097 20.23669 36911 ft 465 kts 30°
2026-05-05 12:25 49.81554 20.28957 36905 ft 464 kts 30°
2026-05-05 12:25 49.87012 20.34261 36895 ft 464 kts 30°
2026-05-05 12:26 49.92448 20.39557 36892 ft 464 kts 30°
2026-05-05 12:26 49.97898 20.44883 36892 ft 464 kts 30°
2026-05-05 12:27 50.03326 20.50197 36882 ft 462 kts 30°
2026-05-05 12:27 50.08420 20.55081 36868 ft 460 kts 22°
2026-05-05 12:28 50.11437 20.56636 36869 ft 450 kts
2026-05-05 12:28 50.14508 20.57171 36909 ft 451 kts
2026-05-05 12:28 50.20761 20.58004 36895 ft 452 kts
2026-05-05 12:29 50.27035 20.58690 36879 ft 452 kts
2026-05-05 12:29 50.33312 20.59349 36065 ft 453 kts
2026-05-05 12:30 50.36467 20.59677 35059 ft 461 kts
2026-05-05 12:30 50.39686 20.60012 34271 ft 463 kts
2026-05-05 12:30 50.42889 20.60346 33619 ft 461 kts
2026-05-05 12:30 50.46084 20.60679 33037 ft 457 kts
2026-05-05 12:31 50.49236 20.61007 32498 ft 452 kts
2026-05-05 12:31 50.52360 20.61333 31949 ft 448 kts
2026-05-05 12:31 50.55468 20.61658 31404 ft 445 kts
2026-05-05 12:31 50.58544 20.61979 30798 ft 444 kts
2026-05-05 12:32 50.61615 20.62300 30240 ft 442 kts
2026-05-05 12:32 50.64672 20.62620 29707 ft 438 kts
2026-05-05 12:32 50.67692 20.62937 29149 ft 435 kts
2026-05-05 12:32 50.70704 20.63253 28607 ft 431 kts
2026-05-05 12:33 50.73690 20.63567 28078 ft 428 kts
2026-05-05 12:33 50.76657 20.63879 27551 ft 425 kts
2026-05-05 12:33 50.79550 20.64183 27030 ft 422 kts
2026-05-05 12:33 50.82479 20.64492 26534 ft 420 kts
2026-05-05 12:34 50.85368 20.64797 26015 ft 418 kts
2026-05-05 12:34 50.88268 20.65104 25513 ft 416 kts
2026-05-05 12:34 50.91146 20.65408 25020 ft 415 kts
2026-05-05 12:34 50.94029 20.65713 24512 ft 414 kts
2026-05-05 12:35 50.96890 20.66016 24011 ft 413 kts
2026-05-05 12:35 50.99752 20.66321 23530 ft 412 kts
2026-05-05 12:35 51.02620 20.66626 22951 ft 412 kts
2026-05-05 12:35 51.05469 20.66929 22425 ft 410 kts
2026-05-05 12:36 51.08309 20.67232 21968 ft 407 kts
2026-05-05 12:36 51.11104 20.67530 21517 ft 404 kts
2026-05-05 12:36 51.13905 20.67829 21051 ft 402 kts
2026-05-05 12:36 51.16679 20.68126 20612 ft 399 kts
2026-05-05 12:37 51.19415 20.68419 20164 ft 398 kts
2026-05-05 12:37 51.22200 20.68718 19720 ft 396 kts
2026-05-05 12:37 51.24913 20.69009 19285 ft 394 kts
2026-05-05 12:37 51.27651 20.69320 18837 ft 394 kts
2026-05-05 12:38 51.30328 20.70411 18301 ft 398 kts 18°
2026-05-05 12:38 51.32951 20.71817 17848 ft 396 kts 16°
2026-05-05 12:38 51.35557 20.73195 17347 ft 395 kts 16°
2026-05-05 12:38 51.38171 20.74589 16842 ft 394 kts 16°
2026-05-05 12:39 51.40767 20.75977 16345 ft 394 kts 16°
2026-05-05 12:39 51.43371 20.77374 15807 ft 394 kts 16°
2026-05-05 12:39 51.45960 20.78764 15329 ft 393 kts 16°
2026-05-05 12:39 51.47678 20.79688 15079 ft 390 kts 16°
2026-05-05 12:40 51.51085 20.81521 14393 ft 391 kts 16°
2026-05-05 12:40 51.53631 20.82894 13979 ft 388 kts 16°
2026-05-05 12:40 51.56187 20.84273 13501 ft 387 kts 15°
2026-05-05 12:40 51.57904 20.85201 13121 ft 388 kts 15°
2026-05-05 12:41 51.61285 20.87029 12437 ft 386 kts 15°
2026-05-05 12:41 51.62968 20.87942 12118 ft 385 kts 16°
2026-05-05 12:41 51.65492 20.89310 11628 ft 384 kts 16°
2026-05-05 12:41 51.68006 20.90673 11128 ft 383 kts 15°
2026-05-05 12:42 51.70528 20.91997 10587 ft 384 kts 15°
2026-05-05 12:42 51.73051 20.93320 10076 ft 384 kts 15°
2026-05-05 12:42 51.75544 20.94631 9587 ft 383 kts 15°
2026-05-05 12:42 51.77947 20.96083 9025 ft 373 kts 27°
2026-05-05 12:43 51.80045 20.98475 8525 ft 361 kts 36°
2026-05-05 12:43 51.82017 21.00836 8119 ft 348 kts 36°
2026-05-05 12:43 51.83820 21.02979 7724 ft 337 kts 36°
2026-05-05 12:43 51.85659 21.05158 7300 ft 327 kts 36°
2026-05-05 12:44 51.87357 21.07512 6844 ft 318 kts 53°
2026-05-05 12:44 51.88432 21.10582 6375 ft 309 kts 65°
2026-05-05 12:44 51.89422 21.13613 5973 ft 301 kts 60°
2026-05-05 12:44 51.90849 21.16001 5506 ft 296 kts 29°
2026-05-05 12:45 51.92795 21.16767 5131 ft 286 kts 354°
2026-05-05 12:45 51.94635 21.15869 4809 ft 271 kts 328°
2026-05-05 12:45 51.96257 21.14407 4552 ft 262 kts 328°
2026-05-05 12:45 51.97839 21.13030 4222 ft 255 kts 329°
2026-05-05 12:46 51.99393 21.11678 3865 ft 252 kts 329°
2026-05-05 12:46 52.00915 21.10350 3561 ft 242 kts 329°
2026-05-05 12:46 52.02364 21.09095 3197 ft 229 kts 329°
2026-05-05 12:46 52.03721 21.07924 2976 ft 210 kts 329°
2026-05-05 12:47 52.04950 21.06858 2679 ft 191 kts 328°
2026-05-05 12:47 52.06056 21.05885 2466 ft 172 kts 327°
2026-05-05 12:47 52.07096 21.04987 2242 ft 165 kts 329°
2026-05-05 12:47 52.08090 21.04118 2040 ft 160 kts 328°
2026-05-05 12:48 52.09058 21.03271 1840 ft 157 kts 329°
2026-05-05 12:48 52.10010 21.02454 1574 ft 156 kts 330°
2026-05-05 12:48 52.10938 21.01687 1336 ft 154 kts 329°
2026-05-05 12:48 52.11913 21.00852 1169 ft 155 kts 327°
2026-05-05 12:49 52.12845 20.99977 944 ft 154 kts 328°
2026-05-05 12:49 52.13797 20.99152 749 ft 156 kts 328°
2026-05-05 12:49 52.14746 20.98311 569 ft 156 kts 328°
2026-05-05 12:49 52.15700 20.97483 389 ft 151 kts 328°
2026-05-05 12:50 52.16510 20.96768 357 ft 101 kts 333°
2026-05-05 12:50 52.16952 20.96384 356 ft 54 kts 330°
2026-05-05 12:50 52.17192 20.96247 359 ft 34 kts 355°
2026-05-05 12:50 52.17371 20.96262 361 ft 11 kts 23°
2026-05-05 12:51 52.17404 20.96316 359 ft 6 kts 60°
2026-05-05 12:51 52.17428 20.96388 358 ft 8 kts 62°
2026-05-05 12:51 52.17459 20.96483 357 ft 11 kts 62°
2026-05-05 12:51 52.17501 20.96577 357 ft 11 kts 41°
2026-05-05 12:52 52.17545 20.96686 359 ft 12 kts 59°
2026-05-05 12:52 52.17589 20.96802 357 ft 12 kts 60°
2026-05-05 12:52 52.17623 20.96921 360 ft 12 kts 97°
2026-05-05 12:52 52.17559 20.96999 356 ft 13 kts 153°
2026-05-05 12:53 52.17531 20.97009 359 ft 0 kts 210°
2026-05-05 12:53 52.17528 20.96996 360 ft 5 kts 252°
2026-05-05 12:53 52.17511 20.96933 357 ft 0 kts 239°